Regional Weather Roundup
Issued by NWS Austin/San Antonio, TX

Home | Current Version | Previous Version | Text Only | Print | Product List | Glossary On
Versions: 1 2 3 4 5 6 7 8 9 10 11 12 13 14 15 16 17 18 19 20 21 22 23 24 25 26 27 28 29 30 31 32 33 34 35 36 37 38 39 40 41 42 43 44 45 46 47 48 49 50
000
ASUS44 KEWX 310710
RWREWX
SOUTH TEXAS REGIONAL WEATHER ROUNDUP
NATIONAL WEATHER SERVICE AUSTIN/SAN ANTONIO TX
200 AM CDT SAT JUL 31 2021

NOTE: "FAIR" INDICATED FEW OR NO CLOUDS BELOW 12,000 FEET WITH NO
SIGNIFICANT WEATHER AND/OR OBSTRUCTIONS TO VISIBILITY.

* - THESE STATIONS ARE NOT NWS OR FAA STATIONS...AND ARE NOT SUBJECT
    TO NWS AND FAA QUALITY CONTROL.

TXZ171-172-183>190-310800-
TEXAS HILL COUNTRY AND EDWARDS PLATEAU

CITY           SKY/WX    TMP DP  RH WIND       PRES   REMARKS
JUNCTION       CLEAR     80  66  62 E3        30.10S
*LLANO         PTCLDY    75  70  83 CALM      30.06S
BURNET         PTCLDY    80  72  76 S3        30.09F
*HORSESHOE BAY PTCLDY    79  71  77 S5        30.07S
*LAGO VISTA    PTCLDY    78  71  81 S5        30.08F
*KERRVILLE     CLEAR     73  69  87 CALM      30.10R
*FREDERICKSBRG PTCLDY    73  69  88 CALM      30.10S
*ROCKSPRINGS   PTCLDY    75  68  78 SE5       30.16F
*BOERNE        CLEAR     77  73  88 S3        30.08S
*CASTROVILLE   CLEAR     82  74  78 CALM      30.06F
HONDO          CLEAR     79  73  82 SE8       30.05S
*UVALDE        CLEAR     78  72  82 SE5       30.06S
DEL RIO        CLEAR     86  68  54 E6        30.02S
*LAUGHLIN AFB  CLEAR     80  67  66 E5        30.03S
*SPOFFORD      NOT AVBL
*EAGLE PASS    CLEAR     77  61  57 SE8G14    30.01S
CARRIZO SPRGS  NOT AVBL
$$

TXZ173-191>194-202-209-217>225-228-310800-
CENTRAL AND SOUTH CENTRAL TEXAS

CITY           SKY/WX    TMP DP  RH WIND       PRES   REMARKS
GEORGETOWN     PTCLDY    82  73  74 S6        30.07F
*TAYLOR        PTCLDY    78  74  88 S6        30.04F
AUSTIN/BERGSTM PTCLDY    77  74  90 SW7       30.04F
AUSTIN/MABRY   PTCLDY    81  72  74 VRB3      30.06F
*PFLUGERVILLE    N/A     77  73  88 CALM      30.04S
SAN MARCOS     CLEAR     78  77  96 S5        30.06F
NEW BRAUNFELS  CLEAR     78  75  90 CALM      30.04S
*RANDOLPH AFB  PTCLDY    77  75  93 SE6       30.04F
*SEGUIN        CLEAR     76  74  96 S5        30.08F
SAN ANTONIO    PTCLDY    80  74  81 SE8       30.06S
STINSON FIELD  CLEAR     80  76  87 SE5       30.03S
*KELLY FIELD   CLEAR     79  74  85 SE9       30.03S
*PLEASANTON    CLEAR    N/A N/A N/A CALM      30.04F
*KENEDY        PTCLDY    78  75  91 E3        30.05S
*LA GRANGE     CLEAR     79  79  99 CALM      30.02F
*GIDDINGS      CLEAR     78  74  88 CALM      30.05F
*GONZALES      CLEAR     78  77  95 S5        30.04S
$$

TXZ163>164-176>182-195>201-210>213-226-227-235-310800-
SOUTHEAST TEXAS

CITY           SKY/WX    TMP DP  RH WIND       PRES   REMARKS
COLLEGE STN    CLEAR     79  73  82 S5        30.04F
*BRYAN         CLEAR     79  73  81 S3        30.06S
*CALDWELL      CLEAR     77  74  91 S3        30.05S
*CROCKETT      CLEAR     77  77 100 CALM      30.04S
*BRENHAM       CLEAR     78  75  91 CALM      30.05S
HUNTSVILLE     CLEAR     81  72  74 VRB3      30.05S
CONROE         CLEAR     76  73  91 CALM      30.05F
HOUSTON BUSH   MOCLDY    78  74  87 CALM      30.04S
HOUSTON HOBBY  PTCLDY    81  75  82 S3        30.04R
*HOUSTON SW AP CLEAR     76  74  95 CALM      30.05S
PEARLAND       CLEAR     79  76  90 CALM      30.05S
HOUSTON HOOKS  CLEAR     78  75  90 CALM      30.04S
ELLINGTON FLD  CLEAR     79  75  89 CALM      30.04R
SUGAR LAND     CLEAR     80  76  87 SW5       30.03F
*HOUSTON EXEC  DRIZZLE   77  77 100 CALM      30.06S
*CLEVELAND MUN CLEAR     76  76 100 CALM      30.05S
*WHARTON       CLEAR     77  74  91 CALM      30.05S
*COLUMBUS      FAIR      76  75  96 CALM      30.05F
*EAGLE LAKE    CLEAR     77  76  94 CALM      30.04F
$$

TXZ214>216-236>238-310800-
THE UPPER TEXAS COAST

CITY           SKY/WX    TMP DP  RH WIND       PRES   REMARKS
*ORANGE        CLEAR     79  76  90 CALM      30.05F
PORT ARTHUR    CLEAR     78  78 100 SW3       30.03F
GALVESTON      CLEAR     85  77  77 S5        30.04S HX  95
ANGLETON       CLEAR     78  75  90 CALM      30.03F
*BAY CITY      CLEAR     78  77  95 CALM      30.04S
PALACIOS       PTCLDY    85  78  80 S10       30.03S HX  96
$$

TXZ229>234-239>247-310800-
TEXAS COASTAL BEND AND RIO GRANDE PLAINS

CITY           SKY/WX    TMP DP  RH WIND       PRES   REMARKS
VICTORIA       CLEAR     79  76  90 S7        30.03F
*BEEVILLE      CLEAR     78  78 100 E5        30.03S
ROCKPORT       PTCLDY    84  78  82 S6        30.02S HX  95
*PORT ARANSAS  PTCLDY    84  78  82 S8        30.05R HX  94
*PORT LAVACA   CLEAR     81  77  87 S5        30.04F
*INGLESIDE     CLEAR     83  78  85 S6        30.03R HX  94
CORPUS CHRISTI PTCLDY    79  78  97 S5        30.03S
CORPUS NAS     CLEAR     85  79  82 S8        30.03S HX  98
*ROBSTOWN      CLEAR     82  79  89 S6        30.03F HX  93
ALICE          PTCLDY    77  75  93 SE6       30.03R
KINGSVILLE NAS CLEAR     80  74  81 S7        30.03R
COTULLA        NOT AVBL
LAREDO         CLEAR     84  74  71 S12       30.02S HX  91
$$

TXZ248>255-310800-
DEEP SOUTH TEXAS

CITY           SKY/WX    TMP DP  RH WIND       PRES   REMARKS
BROWNSVILLE    CLEAR     78  74  87 S6        30.03F
PORT ISABEL    CLEAR     80  76  87 S6        30.03F
HARLINGEN      CLEAR     77  75  93 S5        30.03S
*HEBBRONVILLE  CLEAR     78  74  88 CALM      30.05F
MCALLEN        CLEAR     78  74  87 SE7       30.04S
*WESLACO       MOCLDY    78  75  90 S5        30.03S
FALFURRIAS     CLEAR     76  74  92 S3        30.02S
EDINBURG       CLEAR     79  76  89 S6        30.04S
*ZAPATA        CLEAR     84  73  70 SE6       30.03F HX  90
$$

TXZ213>215-236>238-242>244-246-247-251-254-255-310800-
CMAN STATIONS

STATION/POSITION TIME  TEMP    WIND        PRES    WAVE
                       AIR SEA DIR/SP/G            HT/PER
                 (UTC) (F)     (DEG/KT/KT) (MB)    (FT/S)
SEA RIM ST PARK  0700   81     260/  4/  5 1017.1
NORTH JETTY/GLS  0618   85 88  200/  7/  9 1016.0
EAGLE POINT      0630   83 90  260/  4/  5 1016.7
MORGANS POINT    0630   83 88  210/  3/  5 1017.2
MISSION/ARANSAS  0600   85     160/  9     1018.0
PORT O`CONNOR    0630   84 91  160/ 10/ 13 1016.7
PORT ARANSAS     0700   84     180/ 15/ 17   N/A
MALAQUITE BEACH  0630   84     150/ 16/ 17   N/A
BAFFIN BAY       0630   84 88  170/ 16/ 19 1017.2
PORT ISABEL      0630   81 87  180/  5/  7 1018.2
$$



USA.gov is the U.S. government's official web portal to all federal, state and local government web resources and services.